EW9240 Weather Reports


Display with metric or nautical units.
time (UTC)temp
F
wind
direction
speed
MPH
gust
MPH
rain 1hr
in
rain 24hr
in
rain mn
in
humidity
%
barometer
mb
20260506091504 58 292 0.0 0.0 0.00 0.00 0.00 81 1015.9
20260506090055 58 294 0.0 3.0 0.00 0.00 0.00 81 1015.7
20260506084531 58 282 0.0 2.0 0.00 0.00 0.00 81 1015.7
20260506083005 58 281 0.0 2.0 0.00 0.00 0.00 81 1015.8
20260506081555 58 290 0.0 3.0 0.00 0.00 0.00 81 1015.7
20260506073007 59 290 0.0 0.0 0.00 0.00 0.00 82 1015.3
20260506071549 59 290 0.0 1.0 0.00 0.00 0.00 82 1015.2
20260506061559 60 129 0.0 0.0 0.00 0.00 0.00 81 1014.9
20260506044615 61 129 0.0 0.0 0.00 0.00 0.00 78 1014.4
20260506043050 61 129 0.0 1.0 0.00 0.00 0.00 77 1014.3
20260506041532 61 129 0.0 1.0 0.00 0.00 0.00 76 1014.1
20260506040018 61 127 0.0 0.0 0.00 0.00 0.00 76 1014.0
20260506034605 61 82 0.0 0.0 0.00 0.00 0.00 76 1013.8
20260506033046 61 76 0.0 1.0 0.00 0.00 0.00 76 1013.6
20260506031533 62 77 0.0 2.0 0.00 0.00 0.00 75 1013.5
20260506030036 62 38 0.0 2.0 0.00 0.00 0.00 74 1013.5
20260506024528 62 134 0.0 2.0 0.00 0.00 0.00 73 1013.3
20260506023059 62 321 0.0 0.0 0.00 0.00 0.00 73 1013.3
20260506021530 63 321 0.0 1.0 0.00 0.00 0.00 72 1013.2
20260506020015 63 319 0.0 1.0 0.00 0.00 0.00 72 1013.2
20260506014538 62 286 0.0 1.0 0.00 0.00 0.00 72 1013.3
20260506013022 62 274 0.0 1.0 0.00 0.00 0.00 72 1013.2
20260506011604 62 281 0.0 2.0 0.00 0.00 0.00 73 1013.3
20260506010048 63 346 0.0 0.0 0.00 0.00 0.00 73 1013.2
20260506004534 63 311 0.0 2.0 0.00 0.00 0.00 72 1013.4
20260506003015 63 321 0.0 3.0 0.00 0.00 0.00 72 1013.3
20260506001610 63 288 0.0 1.0 0.00 0.00 0.00 72 1013.4
20260506000041 62 264 0.0 3.0 0.00 0.00 0.00 74 1013.5
20260505234528 62 274 0.0 5.0 0.00 0.00 0.00 73 1013.7
20260505233008 62 278 1.0 3.0 0.00 0.00 0.00 74 1013.7
20260505231530 62 257 0.0 4.0 0.00 0.00 0.00 74 1013.8
20260505230030 62 312 2.0 5.0 0.00 0.00 0.00 73 1013.8
20260505224700 62 269 1.0 5.0 0.00 0.00 0.00 74 1013.9
20260505223058 62 274 0.0 4.0 0.00 0.00 0.00 73 1014.0
20260505221545 63 275 0.0 1.0 0.00 0.00 0.00 73 1014.0
20260505220052 63 155 0.0 1.0 0.00 0.00 0.00 73 1014.1
20260505214538 62 297 0.0 3.0 0.00 0.00 0.00 74 1014.1
20260505213015 62 304 0.0 2.0 0.00 0.00 0.00 73 1014.2
20260505211554 62 279 0.0 3.0 0.00 0.00 0.00 75 1014.2
20260505210040 62 302 0.0 3.0 0.00 0.00 0.00 73 1014.3
20260505204501 62 285 0.0 2.0 0.00 0.00 0.00 73 1014.5
20260505203031 62 282 0.0 3.0 0.00 0.00 0.00 74 1014.5
20260505201513 61 126 0.0 3.0 0.00 0.00 0.00 76 1014.6
20260505200053 60 123 0.0 2.0 0.00 0.00 0.00 77 1014.7
20260505194538 60 290 0.0 2.0 0.00 0.00 0.00 78 1014.8
20260505193017 60 118 0.0 1.0 0.00 0.00 0.00 78 1014.9
20260505191501 59 290 0.0 3.0 0.00 0.00 0.00 79 1014.8
20260505190043 59 221 0.0 2.0 0.00 0.00 0.00 79 1014.8
20260505184514 58 147 0.0 1.0 0.00 0.00 0.00 80 1014.8
20260505183000 58 214 0.0 1.0 0.00 0.00 0.00 80 1014.8
20260505181546 58 117 0.0 3.0 0.00 0.00 0.00 80 1014.8
20260505180044 58 214 0.0 1.0 0.00 0.00 0.00 80 1014.7
20260505174512 57 208 0.0 3.0 0.00 0.00 0.00 81 1014.7
20260505173055 57 89 0.0 1.0 0.00 0.00 0.00 80 1014.6
20260505171542 57 206 0.0 1.0 0.00 0.00 0.00 81 1014.6
20260505170023 57 205 0.0 2.0 0.00 0.00 0.00 81 1014.5
20260505164508 57 216 0.0 2.0 0.00 0.00 0.00 81 1014.4
20260505163046 56 207 0.0 3.0 0.00 0.00 0.00 82 1014.3
20260505161519 56 219 0.0 1.0 0.00 0.00 0.00 83 1014.3
20260505153007 55 214 0.0 1.0 0.00 0.00 0.00 85 1014.2
20260505151550 55 215 0.0 1.0 0.00 0.00 0.00 85 1014.2
20260505124541 54 188 0.0 2.0 0.00 0.00 0.00 84 1013.1
20260505123025 54 199 0.0 0.0 0.00 0.00 0.00 84 1013.0
20260505121605 54 215 0.0 1.0 0.00 0.00 0.00 84 1013.1
20260505120045 54 213 0.0 1.0 0.00 0.00 0.00 84 1013.0
20260505114531 54 216 0.0 2.0 0.00 0.00 0.00 84 1013.0
20260505113003 55 225 0.0 0.0 0.00 0.00 0.00 84 1012.9
20260505111548 55 195 0.0 0.0 0.00 0.00 0.00 84 1012.9
20260505101557 55 210 0.0 2.0 0.00 0.00 0.00 83 1012.5
20260505100047 55 179 0.0 1.0 0.00 0.00 0.00 84 1012.5
20260505094501 55 210 1.0 3.0 0.00 0.00 0.00 83 1012.3
20260505093024 55 195 0.0 2.0 0.00 0.00 0.00 83 1012.3